Location: Unspecified
(30.4033°N, 0.0000°E)
Time: 01:09:08
(UTC+00:00)

CZ-6A DEB - Visible Passes

Search period start: 04 April 2026 00:00
Search period end: 14 April 2026 00:00
Orbit: 778 x 800 km, 89.0° (Epoch: 29 March)

Date Brightness Start Highest point End Pass type
(mag) Time Alt. Az. Time Alt. Az. Time Alt. Az.
5 Apr ? 05:04:41 10° SE 05:08:26 20° E 05:12:12 10° NNE visible
5 Apr ? 19:03:00 10° NW 19:06:31 18° W 19:10:02 10° WSW visible
6 Apr ? 04:37:45 10° E 04:38:37 10° ENE 04:39:28 10° ENE visible
8 Apr ? 05:13:45 10° SSE 05:18:27 36° E 05:23:10 10° NNE visible
9 Apr ? 04:44:55 10° SE 04:48:31 19° E 04:52:07 10° NE visible
9 Apr ? 18:42:54 10° NW 18:46:35 20° W 18:50:16 10° SW visible
12 Apr ? 04:53:50 10° SE 04:58:27 33° E 05:03:06 10° NNE visible
12 Apr ? 18:55:15 10° WNW 18:56:27 11° WNW 18:57:39 10° W visible
13 Apr ? 04:25:05 10° ESE 04:28:31 18° E 04:31:57 10° NE visible
